TimeCDT,TemperatureF,Dew PointF,Humidity,Sea Level PressureIn,VisibilityMPH,Wind Direction,Wind SpeedMPH,Gust SpeedMPH,PrecipitationIn,Events,Conditions,WindDirDegrees,DateUTC
12:15 AM,32.0,15.8,51,29.88,10.0,Calm,Calm,-,N/A,,Scattered Clouds,0,2012-11-01 05:15:00
12:35 AM,30.2,17.6,60,29.88,10.0,Calm,Calm,-,N/A,,Clear,0,2012-11-01 05:35:00
12:55 AM,30.2,17.6,60,29.88,10.0,SSW,3.5,-,N/A,,Clear,210,2012-11-01 05:55:00
1:15 AM,28.4,19.4,69,29.88,10.0,Calm,Calm,-,N/A,,Clear,0,2012-11-01 06:15:00
1:35 AM,30.2,17.6,60,29.88,10.0,SW,3.5,-,N/A,,Clear,220,2012-11-01 06:35:00
1:55 AM,30.2,17.6,60,29.87,10.0,South,3.5,-,N/A,,Scattered Clouds,190,2012-11-01 06:55:00
2:15 AM,30.2,19.4,64,29.87,10.0,Calm,Calm,-,N/A,,Scattered Clouds,0,2012-11-01 07:15:00
2:35 AM,30.2,19.4,64,29.87,10.0,Calm,Calm,-,N/A,,Mostly Cloudy,0,2012-11-01 07:35:00
2:55 AM,30.2,19.4,64,29.87,10.0,Calm,Calm,-,N/A,,Mostly Cloudy,0,2012-11-01 07:55:00
3:15 AM,30.2,17.6,60,29.86,10.0,Calm,Calm,-,N/A,,Scattered Clouds,0,2012-11-01 08:15:00
3:35 AM,32.0,17.6,55,29.86,10.0,WSW,5.8,-,N/A,,Scattered Clouds,250,2012-11-01 08:35:00
3:55 AM,32.0,15.8,51,29.86,10.0,West,3.5,-,N/A,,Scattered Clouds,260,2012-11-01 08:55:00
4:15 AM,32.0,17.6,55,29.85,10.0,WSW,3.5,-,N/A,,Scattered Clouds,240,2012-11-01 09:15:00
4:35 AM,32.0,17.6,55,29.86,10.0,Calm,Calm,-,N/A,,Scattered Clouds,0,2012-11-01 09:35:00
5:15 AM,32.0,15.8,51,29.86,10.0,West,4.6,-,N/A,,Scattered Clouds,270,2012-11-01 10:15:00
5:35 AM,33.8,17.6,52,29.86,10.0,West,6.9,-,N/A,,Mostly Cloudy,260,2012-11-01 10:35:00
5:55 AM,35.6,17.6,48,29.86,10.0,West,6.9,-,N/A,,Overcast,280,2012-11-01 10:55:00
6:15 AM,35.6,15.8,44,29.86,10.0,WNW,5.8,-,N/A,,Overcast,290,2012-11-01 11:15:00
6:35 AM,33.8,15.8,48,29.87,10.0,West,5.8,-,N/A,,Mostly Cloudy,280,2012-11-01 11:35:00
6:55 AM,33.8,14.0,44,29.87,10.0,West,3.5,-,N/A,,Scattered Clouds,280,2012-11-01 11:55:00
7:15 AM,33.8,15.8,48,29.87,10.0,West,3.5,-,N/A,,Mostly Cloudy,280,2012-11-01 12:15:00
7:35 AM,33.8,17.6,52,29.87,10.0,Calm,Calm,-,N/A,,Overcast,0,2012-11-01 12:35:00
8:35 AM,37.4,17.6,45,29.87,10.0,West,4.6,-,N/A,,Overcast,280,2012-11-01 13:35:00
8:55 AM,37.4,17.6,45,29.87,10.0,Calm,Calm,-,N/A,,Overcast,0,2012-11-01 13:55:00
9:15 AM,37.4,17.6,45,29.88,10.0,West,8.1,-,N/A,,Overcast,280,2012-11-01 14:15:00
9:35 AM,39.2,19.4,45,29.88,10.0,WNW,3.5,-,N/A,,Overcast,300,2012-11-01 14:35:00
10:15 AM,42.8,17.6,36,29.88,10.0,WNW,6.9,-,N/A,,Overcast,290,2012-11-01 15:15:00
10:35 AM,44.6,19.4,37,29.87,10.0,NW,9.2,-,N/A,,Scattered Clouds,310,2012-11-01 15:35:00
10:55 AM,44.6,21.2,39,29.87,10.0,WNW,9.2,-,N/A,,Scattered Clouds,300,2012-11-01 15:55:00
11:15 AM,46.4,23.0,40,29.87,10.0,NW,15.0,25.3,N/A,,Mostly Cloudy,320,2012-11-01 16:15:00
11:35 AM,46.4,26.6,46,29.87,10.0,NW,19.6,29.9,N/A,,Mostly Cloudy,310,2012-11-01 16:35:00
11:55 AM,46.4,26.6,46,29.86,10.0,NNW,17.3,27.6,N/A,,Scattered Clouds,330,2012-11-01 16:55:00
12:15 PM,50.0,28.4,43,29.85,10.0,NW,18.4,27.6,N/A,,Scattered Clouds,310,2012-11-01 17:15:00
12:35 PM,48.2,28.4,46,29.85,10.0,NW,17.3,28.8,N/A,,Mostly Cloudy,320,2012-11-01 17:35:00
1:15 PM,50.0,26.6,40,29.84,10.0,NNW,13.8,20.7,N/A,,Clear,340,2012-11-01 18:15:00
1:35 PM,48.2,26.6,43,29.84,10.0,NW,11.5,19.6,N/A,,Clear,320,2012-11-01 18:35:00
1:55 PM,48.2,28.4,46,29.84,10.0,NW,13.8,19.6,N/A,,Clear,320,2012-11-01 18:55:00
2:15 PM,50.0,28.4,43,29.84,10.0,NW,15.0,26.5,N/A,,Scattered Clouds,320,2012-11-01 19:15:00
2:35 PM,50.0,28.4,43,29.84,10.0,NW,15.0,26.5,N/A,,Mostly Cloudy,320,2012-11-01 19:35:00
2:55 PM,50.0,28.4,43,29.84,10.0,North,10.4,21.9,N/A,,Mostly Cloudy,350,2012-11-01 19:55:00
3:15 PM,48.2,28.4,46,29.84,10.0,NNW,15.0,20.7,N/A,,Mostly Cloudy,330,2012-11-01 20:15:00
3:35 PM,50.0,28.4,43,29.84,10.0,NNW,12.7,24.2,N/A,,Mostly Cloudy,330,2012-11-01 20:35:00
3:55 PM,46.4,28.4,50,29.84,10.0,North,8.1,24.2,N/A,,Overcast,360,2012-11-01 20:55:00
4:15 PM,46.4,28.4,50,29.84,10.0,North,11.5,21.9,N/A,,Overcast,360,2012-11-01 21:15:00
4:35 PM,46.4,28.4,50,29.85,10.0,North,16.1,-,N/A,,Overcast,350,2012-11-01 21:35:00
4:55 PM,44.6,28.4,53,29.86,10.0,NNW,11.5,19.6,N/A,,Overcast,340,2012-11-01 21:55:00
5:15 PM,44.6,28.4,53,29.87,10.0,NNW,13.8,18.4,N/A,,Overcast,340,2012-11-01 22:15:00
5:35 PM,42.8,26.6,53,29.87,10.0,NNW,10.4,-,N/A,,Overcast,330,2012-11-01 22:35:00
6:15 PM,42.8,26.6,53,29.88,10.0,NNW,6.9,-,N/A,,Overcast,340,2012-11-01 23:15:00
6:35 PM,42.8,26.6,53,29.89,10.0,NNW,5.8,-,N/A,,Overcast,340,2012-11-01 23:35:00
6:55 PM,42.8,26.6,53,29.89,10.0,NNW,10.4,16.1,N/A,,Overcast,330,2012-11-01 23:55:00
7:15 PM,42.8,26.6,53,29.90,10.0,NNW,10.4,-,N/A,,Overcast,330,2012-11-02 00:15:00
7:35 PM,41.0,28.4,61,29.91,10.0,NNW,11.5,-,N/A,,Overcast,340,2012-11-02 00:35:00
7:55 PM,41.0,28.4,61,29.92,10.0,NNW,10.4,-,N/A,,Overcast,340,2012-11-02 00:55:00
8:15 PM,39.2,28.4,65,29.92,10.0,North,8.1,-,N/A,,Mostly Cloudy,350,2012-11-02 01:15:00
8:35 PM,39.2,28.4,65,29.92,10.0,NNW,8.1,-,N/A,,Scattered Clouds,330,2012-11-02 01:35:00
8:55 PM,37.4,28.4,70,29.93,10.0,NNW,6.9,-,N/A,,Scattered Clouds,330,2012-11-02 01:55:00
9:15 PM,37.4,28.4,70,29.93,10.0,NNW,5.8,-,N/A,,Mostly Cloudy,330,2012-11-02 02:15:00
9:35 PM,35.6,28.4,75,29.94,10.0,NNW,6.9,-,N/A,,Scattered Clouds,330,2012-11-02 02:35:00
9:55 PM,35.6,30.2,81,29.94,10.0,NNW,5.8,-,N/A,,Scattered Clouds,340,2012-11-02 02:55:00
10:15 PM,35.6,28.4,75,29.95,10.0,NNW,4.6,-,N/A,,Clear,330,2012-11-02 03:15:00
10:35 PM,33.8,28.4,81,29.95,10.0,NNW,4.6,-,N/A,,Clear,340,2012-11-02 03:35:00
10:55 PM,33.8,28.4,81,29.95,10.0,NNW,4.6,-,N/A,,Clear,330,2012-11-02 03:55:00
11:15 PM,33.8,28.4,81,29.96,10.0,NW,5.8,-,N/A,,Clear,320,2012-11-02 04:15:00
11:35 PM,32.0,28.4,87,29.96,10.0,WNW,4.6,-,N/A,,Clear,300,2012-11-02 04:35:00
11:55 PM,33.8,28.4,81,29.97,10.0,NW,3.5,-,N/A,,Mostly Cloudy,320,2012-11-02 04:55:00